Retour au catalogue

USA 361

ActifMilitaireVLEO
NORAD 59821·PAYLOAD·🇺🇸 United States

Lancé May 22, 2024 depuis Vandenberg Space Force Base

Loading…

Prochains Passages (prochaines 24 heures)

TLE

PériméSource: Mike McCants

Époque: Aug 20, 2026, 21:29 UTC

1 59821U 24096H   26232.89519968 0.00000000  00000-0  00000-0 0    09
2 59821  70.0260 149.6721 0004000 149.4972 210.5027 14.96713003    03

Suivez USA 361 en temps réel avec AllMySat

Download on the App Store